Flag for U.S.A. Weather past 2 weeks in Pasadena, Texas, U.S.A.

Now
70 °F

Scattered clouds.


Feels Like: 70 °F
Forecast: 58 / 72 °F
Wind: 8 mph from North

Location: Houston / Ellington

Current Time: Apr 28, 2015 at 10:58:41 AM

Latest Report: Apr 28, 2015 at 9:50 AM


Visibility: 10 mi

Pressure: 29.89 "Hg

Humidity: 83%

Dew point: 64 °F

Location of PasadenaLocation

Historic Weather in Pasadena — Graph

°F

Pasadena temperature yesterday

Maximum temperature yesterday: 75 °F (at 1:50 AM)
Minimum temperature yesterday: 70 °F (at 6:50 AM)
Average temperature yesterday: 73 °F

Past Weeks' High & Low Weather Summary

 TemperatureHumidityPressure
High86 °F (Apr 13, 4:50 PM)100% (Apr 13, 9:50 AM)30.10 "Hg (Apr 13, 9:50 AM)
Low61 °F (Apr 21, 6:50 AM)31% (Apr 20, 2:50 PM)28.75 "Hg (Apr 24, 7:50 PM)
Average73 °F82%29.87 "Hg
* Reported Apr 13 9:50 AM — Apr 28 9:50 AM, Pasadena, Weather by CustomWeather, © 2015

Note: Actual official high and low records may vary slightly from our data, if they occured in-between our weather recording intervals... More about our weather records

Advertising

Pasadena weather history for previous 24 hours

 ConditionsComfort  
Time TempWeatherWind HumidityBarometerVisibility
9:50 AM
Tue, Apr 28
70 °FScattered clouds.8 mph83%29.89 "Hg10 mi
8:50 AM66 °FPartly sunny.8 mph94%29.90 "Hg10 mi
7:50 AM66 °FPartly sunny.7 mph94%29.88 "Hg10 mi
6:50 AM66 °FPartly cloudy.No wind83%29.84 "Hg10 mi
5:50 AM66 °FPartly cloudy.No wind83%29.82 "Hg10 mi
4:50 AM66 °FMostly cloudy.7 mph83%29.80 "Hg10 mi
3:50 AM68 °FMostly cloudy.9 mph83%29.79 "Hg10 mi
2:50 AM68 °FMostly cloudy.12 mph83%29.79 "Hg10 mi
1:50 AM70 °FOvercast.8 mph94%29.79 "Hg8 mi
12:50 AM70 °FOvercast.6 mph94%29.80 "Hg10 mi
11:50 PM
Mon, Apr 27
70 °FOvercast.8 mph94%29.80 "Hg10 mi
10:50 PM72 °FOvercast.7 mph94%29.78 "Hg10 mi
9:50 PM70 °FPartly cloudy.6 mph88%29.76 "Hg10 mi
8:50 PM72 °FBroken clouds.6 mph88%29.74 "Hg10 mi
7:50 PM73 °FPartly sunny.7 mph83%29.70 "Hg10 mi
6:50 PM73 °FBroken clouds.8 mph74%29.68 "Hg10 mi
5:50 PM73 °FPartly sunny.10 mph74%29.67 "Hg10 mi
4:50 PM73 °FBroken clouds.8 mph78%29.67 "Hg10 mi
3:50 PM73 °FPartly sunny.8 mph83%29.67 "Hg10 mi
2:50 PM73 °FMostly cloudy.10 mph74%29.70 "Hg10 mi
1:50 PM73 °FMostly cloudy.8 mph74%29.70 "Hg10 mi
12:50 PM75 °FMore clouds than sun.8 mph69%29.70 "Hg10 mi
11:50 AM75 °FMostly cloudy.9 mph69%29.69 "Hg10 mi
10:50 AM73 °FMostly cloudy.7 mph74%29.68 "Hg10 mi
Weather by CustomWeather, © 2015

See weather overviewHow to use our weather pages